Healy, AK

6:42 AM AKST on January 17, 2017 (GMT -0900)
McKinley National Park

Weather History for PAIN - October, 2011

Change the Weather History Date:

Sunday, October 2, 2011

  Actual Average Record
Temperature  
Mean Temperature 47 °F -  
Max Temperature 50 °F 42 °F 66 °F (2003)
Min Temperature 44 °F 21 °F 0 °F (2000)
Degree Days  
Heating Degree Days 18    
Moisture  
Dew Point 25 °F    
Average Humidity 42    
Maximum Humidity 49    
Minimum Humidity 35    
Precipitation  
Precipitation 0.00 in - - ()
Sea Level Pressure  
Sea Level Pressure 29.50 in    
Wind  
Wind Speed 7 mph (South)    
Max Wind Speed 14 mph    
Max Gust Speed 29 mph    
Visibility 10 miles    
Events      
Averages and records for this station are not official NWS values.
T = Trace of Precipitation, MM = Missing Value Source: NWS Daily Summary

Daily Weather History Graph

Daily Weather History Graph

Search for Another Location

Airport or City:

Trip Planner

Search our weather history database for the weather conditions in past years. The results will help you decide how hot, cold, wet, or windy it might be!

Date:

Astronomy

Oct. 02, 2011 Rise Set
Actual Time 8:06 AM AKDT 7:21 PM AKDT
Civil Twilight 7:20 AM AKDT 8:08 PM AKDT
Nautical Twilight 6:24 AM AKDT 9:03 PM AKDT
Astronomical Twilight 5:25 AM AKDT 10:02 PM AKDT
Moon 4:44 PM AKDT (10/2) 9:10 PM AKDT (10/2)
Length of Visible Light 12h 48m
Length of Day
11h 14m
Waxing Crescent, 36% of the Moon is Illuminated
Oct 2
Waxing Crescent
Oct 3
First Quarter
Oct 11
Full
Oct 19
Last Quarter
Oct 26
New

Hourly Weather History & Observations

Time (AKDT) Temp. Windchill Dew Point Humidity Pressure Visibility Wind Dir Wind Speed Gust Speed Precip Events Conditions
12:16 AM 46.4 °F 45.2 °F 26.6 °F 46% 29.53 in 10.0 mi WSW 3.5 mph - N/A   Overcast
12:36 AM 46.4 °F 43.5 °F 26.6 °F 46% 29.53 in 10.0 mi SW 5.8 mph - N/A   Overcast
12:56 AM 46.4 °F 45.2 °F 26.6 °F 46% 29.52 in 10.0 mi SW 3.5 mph - N/A   Mostly Cloudy
1:16 AM 46.4 °F 43.5 °F 26.6 °F 46% 29.52 in 10.0 mi SSW 5.8 mph - N/A   Mostly Cloudy
1:36 AM 46.4 °F 42.9 °F 26.6 °F 46% 29.51 in 10.0 mi South 6.9 mph - N/A   Scattered Clouds
1:56 AM 46.4 °F 42.4 °F 26.6 °F 46% 29.51 in 10.0 mi South 8.1 mph - N/A   Scattered Clouds
2:16 AM 48.2 °F - 26.6 °F 43% 29.50 in 10.0 mi South 11.5 mph 19.6 mph N/A   Partly Cloudy
2:36 AM 48.2 °F - 26.6 °F 43% 29.50 in 10.0 mi South 12.7 mph 23.0 mph N/A   Clear
2:56 AM 48.2 °F - 26.6 °F 43% 29.50 in 10.0 mi South 13.8 mph 21.9 mph N/A   Clear
3:16 AM 46.4 °F 41.5 °F 26.6 °F 46% 29.50 in 10.0 mi South 10.4 mph 20.7 mph N/A   Clear
3:36 AM 46.4 °F 41.9 °F 26.6 °F 46% 29.50 in 10.0 mi South 9.2 mph 18.4 mph N/A   Clear
3:56 AM 46.4 °F 41.9 °F 26.6 °F 46% 29.51 in 10.0 mi South 9.2 mph 20.7 mph N/A   Clear
4:16 AM 46.4 °F 41.5 °F 26.6 °F 46% 29.51 in 10.0 mi South 10.4 mph 23.0 mph N/A   Clear
4:36 AM 46.4 °F 41.5 °F 26.6 °F 46% 29.50 in 10.0 mi South 10.4 mph 28.8 mph N/A   Clear
4:56 AM 46.4 °F 41.1 °F 26.6 °F 46% 29.50 in 10.0 mi South 11.5 mph 23.0 mph N/A   Clear
5:16 AM 46.4 °F 40.7 °F 26.6 °F 46% 29.49 in 10.0 mi South 12.7 mph 24.2 mph N/A   Clear
5:36 AM 46.4 °F 40.7 °F 26.6 °F 46% 29.49 in 10.0 mi South 12.7 mph 23.0 mph N/A   Clear
5:56 AM 46.4 °F 41.5 °F 26.6 °F 46% 29.49 in 10.0 mi South 10.4 mph 23.0 mph N/A   Clear
6:16 AM 46.4 °F 42.4 °F 26.6 °F 46% 29.49 in 10.0 mi SSW 8.1 mph 24.2 mph N/A   Clear
6:36 AM 46.4 °F 41.1 °F 26.6 °F 46% 29.49 in 10.0 mi South 11.5 mph 26.5 mph N/A   Clear
6:56 AM 46.4 °F 42.4 °F 26.6 °F 46% 29.50 in 10.0 mi SSW 8.1 mph 18.4 mph N/A   Clear
7:16 AM 46.4 °F 42.4 °F 26.6 °F 46% 29.51 in 10.0 mi WSW 8.1 mph 17.3 mph N/A   Clear
7:36 AM 46.4 °F 43.5 °F 26.6 °F 46% 29.51 in 10.0 mi SW 5.8 mph - N/A   Partly Cloudy
8:16 AM 44.6 °F - 26.6 °F 49% 29.53 in 10.0 mi Calm Calm - N/A   Overcast
8:36 AM 46.4 °F 44.3 °F 26.6 °F 46% 29.53 in 10.0 mi SW 4.6 mph - N/A   Scattered Clouds
8:56 AM 46.4 °F 43.5 °F 26.6 °F 46% 29.54 in 10.0 mi South 5.8 mph - N/A   Clear
9:16 AM 44.6 °F 41.4 °F 26.6 °F 49% 29.53 in 10.0 mi SSW 5.8 mph - N/A   Clear
9:36 AM 46.4 °F 44.3 °F 26.6 °F 46% 29.53 in 10.0 mi South 4.6 mph - N/A   Clear
9:56 AM 46.4 °F 43.5 °F 26.6 °F 46% 29.53 in 10.0 mi South 5.8 mph - N/A   Clear
10:16 AM 46.4 °F 42.4 °F 26.6 °F 46% 29.53 in 10.0 mi SSW 8.1 mph - N/A   Clear
10:36 AM 46.4 °F 42.9 °F 26.6 °F 46% 29.52 in 10.0 mi South 6.9 mph - N/A   Clear
10:56 AM 48.2 °F - 26.6 °F 43% 29.52 in 10.0 mi South 4.6 mph 16.1 mph N/A   Clear
11:16 AM 48.2 °F - 24.8 °F 40% 29.52 in 10.0 mi South 8.1 mph - N/A   Clear
11:36 AM 48.2 °F - 24.8 °F 40% 29.52 in 10.0 mi South 8.1 mph - N/A   Clear
11:56 AM 48.2 °F - 24.8 °F 40% 29.52 in 10.0 mi South 6.9 mph 16.1 mph N/A   Clear
12:16 PM 48.2 °F - 24.8 °F 40% 29.52 in 10.0 mi SSW 8.1 mph - N/A   Clear
12:36 PM 48.2 °F - 24.8 °F 40% 29.52 in 10.0 mi South 6.9 mph - N/A   Clear
12:56 PM 48.2 °F - 24.8 °F 40% 29.51 in 10.0 mi SSE 10.4 mph - N/A   Clear
1:16 PM 50.0 °F - 24.8 °F 37% 29.51 in 10.0 mi South 6.9 mph - N/A   Clear
1:36 PM 50.0 °F - 24.8 °F 37% 29.51 in 10.0 mi SSW 9.2 mph - N/A   Partly Cloudy
1:56 PM 48.2 °F - 23.0 °F 37% 29.50 in 10.0 mi South 6.9 mph 16.1 mph N/A   Clear
2:16 PM 48.2 °F - 23.0 °F 37% 29.50 in 10.0 mi SSE 6.9 mph 21.9 mph N/A   Clear
2:36 PM 48.2 °F - 23.0 °F 37% 29.49 in 10.0 mi South 9.2 mph 17.3 mph N/A   Clear
2:56 PM 50.0 °F - 23.0 °F 35% 29.49 in 10.0 mi SSE 11.5 mph 17.3 mph N/A   Clear
3:16 PM 50.0 °F - 23.0 °F 35% 29.49 in 10.0 mi SSE 8.1 mph 16.1 mph N/A   Clear
3:36 PM 48.2 °F - 23.0 °F 37% 29.48 in 10.0 mi SSE 4.6 mph 16.1 mph N/A   Clear
3:56 PM 48.2 °F - 23.0 °F 37% 29.48 in 10.0 mi SE 8.1 mph - N/A   Clear
4:16 PM 48.2 °F - 23.0 °F 37% 29.48 in 10.0 mi SSE 8.1 mph 17.3 mph N/A   Clear
4:36 PM 48.2 °F - 23.0 °F 37% 29.47 in 10.0 mi SSE 8.1 mph 18.4 mph N/A   Clear
4:56 PM 48.2 °F - 23.0 °F 37% 29.47 in 10.0 mi South 5.8 mph 16.1 mph N/A   Clear
5:16 PM 48.2 °F - 23.0 °F 37% 29.47 in 10.0 mi South 3.5 mph 17.3 mph N/A   Clear
5:36 PM 48.2 °F - 23.0 °F 37% 29.47 in 10.0 mi South 3.5 mph 17.3 mph N/A   Clear
5:56 PM 48.2 °F - 23.0 °F 37% 29.46 in 10.0 mi South 8.1 mph - N/A   Clear
6:16 PM 48.2 °F - 23.0 °F 37% 29.45 in 10.0 mi South 8.1 mph - N/A   Clear
6:36 PM 46.4 °F 43.5 °F 23.0 °F 40% 29.45 in 10.0 mi SSW 5.8 mph - N/A   Clear
6:56 PM 46.4 °F 43.5 °F 23.0 °F 40% 29.45 in 10.0 mi South 5.8 mph - N/A   Clear
7:16 PM 46.4 °F 42.9 °F 23.0 °F 40% 29.44 in 10.0 mi South 6.9 mph - N/A   Clear
7:36 PM 46.4 °F 42.9 °F 23.0 °F 40% 29.44 in 10.0 mi South 6.9 mph - N/A   Clear
7:56 PM 46.4 °F 42.9 °F 23.0 °F 40% 29.43 in 10.0 mi SSE 6.9 mph - N/A   Clear
8:16 PM 46.4 °F 43.5 °F 24.8 °F 43% 29.42 in 10.0 mi South 5.8 mph - N/A   Clear
8:36 PM 46.4 °F 42.4 °F 23.0 °F 40% 29.41 in 10.0 mi South 8.1 mph - N/A   Clear
8:56 PM 46.4 °F 42.9 °F 21.2 °F 37% 29.42 in 10.0 mi South 6.9 mph - N/A   Clear
9:16 PM 46.4 °F 43.5 °F 23.0 °F 40% 29.41 in 10.0 mi South 5.8 mph - N/A   Scattered Clouds
9:36 PM 46.4 °F 41.9 °F 21.2 °F 37% 29.40 in 10.0 mi South 9.2 mph 16.1 mph N/A   Overcast
9:56 PM 46.4 °F 42.9 °F 21.2 °F 37% 29.41 in 10.0 mi South 6.9 mph 16.1 mph N/A   Scattered Clouds
10:16 PM 48.2 °F - 21.2 °F 34% 29.41 in 10.0 mi South 6.9 mph - N/A   Mostly Cloudy
10:36 PM 48.2 °F - 21.2 °F 34% 29.40 in 10.0 mi SSE 4.6 mph - N/A   Overcast
10:56 PM 48.2 °F - 21.2 °F 34% 29.41 in 10.0 mi SSE 5.8 mph - N/A   Overcast
11:16 PM 48.2 °F - 21.2 °F 34% 29.42 in 10.0 mi South 8.1 mph - N/A   Overcast
11:36 PM 46.4 °F 42.9 °F 26.6 °F 46% 29.43 in 10.0 mi SE 6.9 mph 21.9 mph N/A   Overcast
11:56 PM 44.6 °F 42.2 °F 26.6 °F 49% 29.42 in 10.0 mi SSE 4.6 mph - N/A   Overcast